This demonstration page uses our WeatherBlox Daily Observations layout. Learn more.

Left ArrowRight Arrow

Hourly Observations for May 27, 2020

Temp ( °F °C ) Dew Point ( °F °C ) Humidity (%) Winds ( mph kmh ) Pressure ( in mb ) Visibility ( mi km ) Precip ( " mm )
12:15 am 00:15 Clear 64 18 63 17 94 94 SSW 3 6 30.19 1022 10 16 N/A
12:35 am 00:35 Clear 64 18 63 17 94 94 S 5 7 30.19 1022 10 16 N/A
12:55 am 00:55 Clear 64 18 63 17 94 94 S 5 7 30.19 1022 10 16 N/A
1:15 am 01:15 Clear 64 18 63 17 94 94 S 5 7 30.19 1022 10 16 N/A
1:35 am 01:35 Clear 64 18 63 17 94 94 S 3 6 30.19 1022 10 16 N/A
1:55 am 01:55 Clear 64 18 63 17 94 94 N N/A 30.19 1022 10 16 N/A
2:15 am 02:15 Clear 63 17 63 17 100 100 N N/A 30.20 1023 10 16 N/A
2:55 am 02:55 Clear 61 16 61 16 100 100 N N/A 30.19 1022 10 16 N/A
3:15 am 03:15 Clear 61 16 61 16 100 100 N N/A 30.20 1023 10 16 N/A
3:35 am 03:35 Clear 59 15 59 15 100 100 N N/A 30.20 1023 10 16 N/A
3:55 am 03:55 Partly Cloudy 59 15 59 15 100 100 N N/A 30.20 1023 10 16 N/A
4:15 am 04:15 Mostly Cloudy 61 16 61 16 100 100 N N/A 30.20 1023 10 16 N/A
4:35 am 04:35 Mostly Cloudy 59 15 59 15 100 100 N N/A 30.20 1023 10 16 N/A
4:55 am 04:55 Partly Cloudy 59 15 59 15 100 100 N N/A 30.19 1022 10 16 N/A
5:15 am 05:15 Clear 61 16 61 16 100 100 N N/A 30.20 1023 10 16 N/A
5:35 am 05:35 Clear 61 16 61 16 100 100 N N/A 30.20 1023 10 16 N/A
5:55 am 05:55 Partly Cloudy 59 15 59 15 100 100 N N/A 30.20 1023 10 16 N/A
6:15 am 06:15 Partly Cloudy 61 16 61 16 100 100 N N/A 30.21 1023 10 16 N/A
6:35 am 06:35 Sunny 59 15 59 15 100 100 N N/A 30.21 1023 10 16 N/A
6:55 am 06:55 Partly Cloudy 61 16 61 16 100 100 N N/A 30.21 1023 10 16 N/A
7:15 am 07:15 Mostly Cloudy 61 16 61 16 100 100 N N/A 30.22 1023 10 16 N/A
7:35 am 07:35 Cloudy 61 16 61 16 100 100 N N/A 30.22 1023 10 16 N/A
7:55 am 07:55 Cloudy 61 16 61 16 100 100 N N/A 30.23 1024 10 16 N/A
8:15 am 08:15 Cloudy 63 17 63 17 100 100 N N/A 30.22 1023 10 16 N/A
8:35 am 08:35 Cloudy 64 18 63 17 94 94 ENE 5 7 30.21 1023 10 16 N/A
8:55 am 08:55 Cloudy 64 18 63 17 94 94 E 5 7 30.21 1023 10 16 N/A
9:15 am 09:15 Cloudy 66 19 63 17 88 88 N N/A 30.21 1023 10 16 N/A
9:35 am 09:35 Cloudy 68 20 63 17 83 83 N N/A 30.21 1023 10 16 N/A
9:55 am 09:55 Cloudy 68 20 63 17 83 83 SSW 7 11 30.22 1023 10 16 N/A
10:15 am 10:15 Cloudy 70 21 63 17 78 78 S 3 6 30.21 1023 10 16 N/A
10:35 am 10:35 Mostly Cloudy 70 21 63 17 78 78 SSE 6 9 30.21 1023 10 16 N/A
10:55 am 10:55 Cloudy 70 21 63 17 78 78 SE 3 6 30.21 1023 10 16 N/A
11:15 am 11:15 Cloudy 72 22 63 17 73 73 SE 5 7 30.20 1023 10 16 N/A
11:35 am 11:35 Cloudy 70 21 63 17 78 78 SSE 5 7 30.20 1023 10 16 N/A
11:55 am 11:55 Cloudy 70 21 63 17 78 78 N N/A 30.20 1023 10 16 N/A
12:15 pm 12:15 Mostly Cloudy 72 22 64 18 78 78 SSE 5 7 30.20 1023 10 16 N/A
12:35 pm 12:35 Mostly Cloudy 73 23 63 17 69 69 SSE 8 13 30.20 1023 10 16 N/A
12:55 pm 12:55 Cloudy 73 23 63 17 69 69 S 9 15 30.19 1022 10 16 N/A
1:15 pm 13:15 Mostly Cloudy 75 24 64 18 69 69 S 10 17 30.19 1022 10 16 N/A
1:35 pm 13:35 Cloudy 75 24 63 17 65 65 SSE 10 17 30.19 1022 10 16 N/A
1:55 pm 13:55 Cloudy 77 25 64 18 65 65 S 12 19 30.18 1022 10 16 N/A
2:15 pm 14:15 Cloudy 77 25 64 18 65 65 SSE 10 17 30.17 1022 10 16 N/A
2:35 pm 14:35 Cloudy 77 25 63 17 61 61 SSE 9 15 30.17 1022 10 16 N/A
2:55 pm 14:55 Cloudy 77 25 63 17 61 61 SSE 8 13 30.17 1022 10 16 N/A
3:15 pm 15:15 Cloudy 77 25 63 17 61 61 SSE 10 17 30.16 1021 10 16 N/A
3:35 pm 15:35 Cloudy 77 25 63 17 61 61 S 8 13 30.15 1021 10 16 N/A
3:55 pm 15:55 Cloudy 77 25 63 17 61 61 S 7 11 30.15 1021 10 16 N/A
4:15 pm 16:15 Mostly Cloudy 77 25 63 17 61 61 SSE 6 9 30.14 1021 10 16 N/A
4:35 pm 16:35 Mostly Cloudy 77 25 63 17 61 61 S 7 11 30.14 1021 10 16 N/A
4:55 pm 16:55 Cloudy 77 25 63 17 61 61 SSE 10 17 30.14 1021 10 16 N/A
5:15 pm 17:15 Mostly Cloudy 77 25 63 17 61 61 SSE 7 11 30.13 1020 10 16 N/A
5:35 pm 17:35 Mostly Cloudy 77 25 63 17 61 61 SE 6 9 30.13 1020 10 16 N/A
5:55 pm 17:55 Mostly Cloudy 77 25 63 17 61 61 SSE 8 13 30.13 1020 10 16 N/A
6:15 pm 18:15 Partly Cloudy 77 25 63 17 61 61 SSE 8 13 30.13 1020 10 16 N/A
6:35 pm 18:35 Sunny 77 25 64 18 65 65 SSE 6 9 30.12 1020 10 16 N/A
6:55 pm 18:55 Sunny 77 25 64 18 65 65 SSE 5 7 30.12 1020 10 16 N/A
7:15 pm 19:15 Sunny 75 24 63 17 65 65 SSE 5 7 30.13 1020 10 16 N/A
7:35 pm 19:35 Sunny 75 24 64 18 69 69 SE 6 9 30.14 1021 10 16 N/A
7:55 pm 19:55 Sunny 75 24 64 18 69 69 SE 5 7 30.14 1021 10 16 N/A
8:15 pm 20:15 Sunny 73 23 64 18 74 74 SSE 3 6 30.14 1021 10 16 N/A
8:35 pm 20:35 Partly Cloudy 73 23 64 18 74 74 SE 3 6 30.14 1021 10 16 N/A
8:55 pm 20:55 Partly Cloudy 72 22 64 18 78 78 N N/A 30.14 1021 10 16 N/A
9:15 pm 21:15 Mostly Cloudy 73 23 64 18 74 74 SE 3 6 30.14 1021 10 16 N/A
9:35 pm 21:35 Cloudy 73 23 64 18 74 74 SSE 5 7 30.14 1021 10 16 N/A
9:55 pm 21:55 Partly Cloudy 73 23 64 18 74 74 SSE 5 7 30.15 1021 10 16 N/A
10:15 pm 22:15 Clear 72 22 64 18 78 78 SSE 5 7 30.15 1021 10 16 N/A
10:35 pm 22:35 Clear 72 22 66 19 83 83 SSE 5 7 30.16 1021 10 16 N/A
10:55 pm 22:55 Partly Cloudy 72 22 66 19 83 83 SSE 5 7 30.16 1021 10 16 N/A
11:15 pm 23:15 Clear 72 22 66 19 83 83 SSE 6 9 30.16 1021 10 16 N/A
11:35 pm 23:35 Clear 72 22 66 19 83 83 SE 6 9 30.16 1021 10 16 N/A
11:55 pm 23:55 Mostly Cloudy 72 22 66 19 83 83 SE 6 9 30.15 1021 10 16 N/A

Powered by AerisWeather